Location: Bonny Doon Airfield
(37.0704°N, 122.1252°W)
Time: 18:09:44
(UTC-07:00)

Vanguard 2 - Pass Details

Date: 19 December 2017
Orbit: 553 x 2939 km, 32.9° (Epoch: 21 July)

Event Time Altitude Azimuth Distance (km) Brightness Sun altitude
Rises 12:25:11 0° 231° (SW) 6,380 12.8 29.3°
Reaches altitude 10° 12:30:08 10° 226° (SW) 5,078 12.6 29.2°
Maximum altitude 12:42:39 43° 161° (SSE) 2,300 11.3 28.9°
Drops below altitude 10° 12:50:33 10° 93° (E) 3,243 10.7 28.6°
Sets 12:53:00 0° 86° (E) 3,947 11.0 28.5°
